Simultaneous Nadir Overpasses (SNOs) Predictions

Prediction of SNOs near US between AQUA and NPP Satellite Orbit:

Table of predicted SNOs near US for the next 10.0 days since TLE Epoch: 9/13/2013
Index Date (AQUA) Time (AQUA) AQUA Lat,Lon Date (NPP) Time (NPP) NPP Lat,Lon Distance(km) Time Diff (sec)
1 09/15/2013 19:06:31 49.99, -92.58 09/15/2013 19:01:58 49.65, -94.51 143.28 273
2 09/15/2013 20:45:24 49.99,-117.30 09/15/2013 20:43:26 49.54,-119.83 188.56 118
3 09/18/2013 08:35:14 20.05,-101.92 09/18/2013 08:26:54 19.54,-102.22 64.85 500
4 09/18/2013 10:11:45 28.61,-124.57 09/18/2013 10:05:47 28.73,-125.24 67.45 358
5 09/21/2013 07:18:58 49.93, -76.04 09/21/2013 07:21:02 50.37, -78.20 161.55 124
6 09/21/2013 08:57:50 49.94,-100.76 09/21/2013 09:02:29 50.49,-103.52 205.96 279
